Regional Weather Roundup
Issued by NWS Bismarck, ND

Home | Current Version | Previous Version | Text Only | Print | Product List | Glossary On
Versions: 1 2 3 4 5 6 7 8 9 10 11 12 13 14 15 16 17 18 19 20 21 22 23 24 25 26 27 28 29 30 31 32 33 34 35 36 37 38 39 40 41 42 43 44 45 46 47 48 49 50
000
ASUS43 KBIS 221159
RWRBIS

NWR BROADCAST TEXT
NATIONAL WEATHER SERVICE BISMARCK ND
600 AM CST MON DEC 22 2014

NOTE: "FAIR" INDICATES FEW OR NO CLOUDS BELOW 12,000 FEET WITH NO
SIGNIFICANT WEATHER AND/OR OBSTRUCTIONS TO VISIBILITY.


CITY           SKY/WX    TMP DP  RH WIND       PRES   REMARKS
WILLISTON      CLOUDY    29  25  85 NW17      29.48R WCI  17
MINOT          FOG       28  26  92 E5        29.46S VSB 1
MINOT AFB      FRZ DRZL  27  27 100 E8        29.46S FOG     WCI  18
BISMARCK       FOG       28  28 100 CALM      29.45S VSB 1/2
DICKINSON      NOT AVBL
GARRISON         N/A     28  27  96 E5        29.44R
HETTINGER ARPT FLURRIES  34  31  88 NW21G32   29.46R
JAMESTOWN      NOT AVBL
CARRINGTON     CLOUDY    32  32 100 MISG      29.47R FOG
CROSBY         FOG       28  28 100 N8        29.48R VSB 1/4
HARVEY         CLOUDY    28  28 100 CALM      29.47R FOG
HAZEN          CLOUDY    28  28 100 NE3       29.45R FOG
OAKES            N/A     32  32 100 E10       29.43F FOG
WATFORD CITY   CLOUDY    28  28 100 NW15G22   29.46R WCI  17
$$

CITY           SKY/WX    TMP DP  RH WIND       PRES   REMARKS
GRAND FORKS    DRIZZLE   34  33  96 E6        29.52S FOG
GRAND FORKS AF NOT AVBL
DEVILS LAKE    CLOUDY    30  25  80 E6        29.47S
FARGO          CLOUDY    38  36  92 SE10      29.49S FOG
GWINNER        CLOUDY    36  36 100 SE9       29.46S VSB 1/4
$$

CITY           SKY/WX    TMP DP  RH WIND       PRES   REMARKS
ABERDEEN       FOG       34  33  96 CALM      29.42S VSB 1/4
MOBRIDGE       CLOUDY    30  28  92 CALM      29.40S FOG
BUFFALO          N/A     36  28  73 NW29G38   29.44R
RAPID CITY     CLOUDY    42  23  46 NW26G43   29.52S
GLASGOW        CLOUDY    32  26  78 NW18      29.60R
SIDNEY         MOCLDY    28  25  86 NW15      29.54R WCI  17
WOLF POINT     LGT SNOW  30  25  81 NW20      29.58R WCI  17
GLENDIVE       CLOUDY    34  28  80 W20G28    29.54R
MILES CITY     PTCLDY    36  27  69 NW21      29.60R
BAKER          CLOUDY    34  50 100 NW22G38   29.53R
$$

CITY           SKY/WX    TMP DP  RH WIND       PRES   REMARKS
BILLINGS       PTCLDY    35  22  58 W16       29.73R
GREAT FALLS    CLOUDY    34  28  79 W9        29.75S
$$



USA.gov is the U.S. government's official web portal to all federal, state and local government web resources and services.